Regional Weather Roundup
Issued by NWS

Home | Current Version | Previous Version | Text Only | Print | Product List | Glossary On
Versions: 1 2 3 4 5 6 7 8 9 10 11 12 13 14 15 16 17 18 19 20 21 22 23 24 25 26 27 28 29 30 31 32 33 34 35 36 37 38 39 40 41 42 43 44 45 46 47 48 49 50
000
ASUS42 KFFC 172003
RWRGA
WEATHER ROUNDUP FOR GEORGIA
NATIONAL WEATHER SERVICE PEACHTREE CITY GA
400 PM EDT WED SEP 17 2014

NOTE: "FAIR" INDICATES FEW OR NO CLOUDS BELOW 12,000 FEET WITH NO
SIGNIFICANT WEATHER AND/OR OBSTRUCTIONS TO VISIBILITY.

* = USE WITH CAUTION. THE STATIONS MARKED WITH AN ASTERISK MAY NOT
REPORT WEATHER SUCH AS PRECIPITATION, FOG, OR THUNDER AND ARE NOT
QUALITY CONTROLLED BY NWS.

THE REMARK "TC" DENOTES TEMPERATURE READING IN DEGREES CELSIUS.

GAZ001>058-172100-
NORTH GEORGIA

CITY           SKY/WX    TMP DP  RH WIND       PRES   REMARKS
ATLANTA        MOSUNNY   86  61  42 NW13      29.91F
ATHENS         MOSUNNY   86  63  45 CALM      29.89F
CHAMBLEE       SUNNY     83  59  44 NW9       29.92F
PEACHTREE CITY MOSUNNY   84  63  49 W6        29.92F
ROME           SUNNY     84  54  35 NW5       29.91F
WEST ATLANTA   SUNNY     83  59  44 W13       29.92F
GAINESVILLE    SUNNY     81  60  48 W8        29.94F
CARTERSVILLE   MOSUNNY   82  60  47 CALM      29.92F


CITY           SKY/WX    TMP DP  RH WIND       PRES   REMARKS
DALTON*        MOSUNNY   77  59  53 NW5       29.95S
LAWRENCEVILLE* MOSUNNY   84  55  37 W10       29.91F
MARIETTA       MOSUNNY   83  62  50 W13       29.93F
KENNESAW*      MOSUNNY   81  59  47 NW7       29.95F
$$

GAZ059>098-102>109-172100-
CENTRAL GEORGIA

CITY           SKY/WX    TMP DP  RH WIND       PRES   REMARKS
AUGUSTA-BUSH   CLOUDY    79  69  71 E3        29.86F THUNDER
AUGUSTA-DANIEL TSTM      78  69  73 NE10      29.89S
COLUMBUS       MOSUNNY   89  62  40 NW9       29.88F
MACON          PTSUNNY   87  67  51 CALM      29.88F HX  90
ROBINS AFB     SUNNY     89  69  50 W7        29.87F HX  93


CITY           SKY/WX    TMP DP  RH WIND       PRES   REMARKS
LAGRANGE*      PTSUNNY   87  71  58 W7        29.92F HX  93
SYLVANIA*      CLOUDY    79  75  86 SE3       29.85F
$$

GAZ099>101-110>166-172100-
SOUTH GEORGIA

CITY           SKY/WX    TMP DP  RH WIND       PRES   REMARKS
SAVANNAH       MOSUNNY   87  72  60 SE9       29.86F HX  93
VALDOSTA       PTSUNNY   90  71  53 VRB3      29.88F HX  96
ALMA           MOSUNNY   90  67  46 VRB5      29.87F HX  93
ST SIMONS      SUNNY     84  71  65 E8        29.87F
FT STEWART     PTSUNNY   86  72  62 N6        29.84F THUNDER HX  92
ALBANY         CLOUDY    89  69  51 W5        29.90F HX  93
HUNTER AFB     MOSUNNY   85  75  72 E10       29.85F HX  92
MOODY AFB      MOSUNNY   89  67  48 NW3       29.88F HX  92
BRUNSWICK      MOSUNNY   88  70  55 SE6       29.88S HX  92


CITY           SKY/WX    TMP DP  RH WIND       PRES   REMARKS
BAINBRIDGE*    SUNNY     91  73  55 CALM      29.88F HX 100
MOULTRIE*      MOSUNNY   88  68  51 S3        29.90F HX  91
VIDALIA*       PTSUNNY   90  68  48 NW5       29.87F HX  93
WAYCROSS*      SUNNY     92  71  51 NW6       29.86F HX  98
DOUGLAS*       MOSUNNY   91  64  40 CALM      29.89F HX  93
$$


USA.gov is the U.S. government's official web portal to all federal, state and local government web resources and services.